Home   Weather   Lafayette   Past weeks

Flag for USA Past Weather in Lafayette, Indiana, USA — Yesterday and Last 2 Weeks

Now
46 °F

Mostly cloudy.


Feels Like: 42 °F
Forecast: 40 / 50 °F
Wind: 7 mph from Southwest

Location: Purdue University Airport

Current Time: Jan 20, 2017 at 11:17:52 am

Latest Report: Jan 20, 2017 at 10:26 am


Visibility: 10 mi

Pressure: 29.67 "Hg

Humidity: 100%

Dew Point: 46 °F

Location of LafayetteLocation

Past Weather in Lafayette — Graph

°F

Lafayette Temperature Yesterday

Maximum temperature yesterday: 44 °F (at 2:54 pm)
Minimum temperature yesterday: 32 °F (at 5:54 am)
Average temperature yesterday: 39 °F

High & Low Weather Summary for the Past Weeks

 TemperatureHumidityPressure
High61 °F (Jan 11, 10:54 pm)100% (Jan 11, 12:43 pm)30.80 "Hg (Jan 11, 12:43 pm)
Low-4 °F (Jan 7, 6:54 am)46% (Jan 8, 3:54 pm)29.47 "Hg (Jan 10, 3:54 pm)
Average30 °F88%30.18 "Hg
* Reported Jan 5 9:54 am — Jan 20 9:54 am, Lafayette, Weather by CustomWeather, © 2017

Note: Actual official high and low records may vary slightly from our data, if they occured in-between our weather recording intervals... More about our weather records

Advertising

Lafayette Weather History for the Previous 24 Hours

Scroll right to see more
 ConditionsComfort  
Time TempWeatherWind HumidityBarometerVisibility
9:54 am
Fri, Jan 20
44 °FFog.8 mph100%29.65 "Hg2 mi
8:54 am43 °FFog.No wind100%29.62 "Hg2 mi
7:54 am42 °FFog.No wind100%29.61 "Hg2 mi
7:37 am42 °FFog.3 mph100%29.60 "Hg1 mi
6:54 am42 °FFog.No wind100%29.59 "Hg2 mi
6:35 am42 °FLight rain. Fog.No wind100%29.58 "Hg2 mi
6:11 am42 °FLight rain. Fog.3 mph100%29.57 "Hg4 mi
5:43 am42 °FLight rain. Fog.No wind100%29.58 "Hg5 mi
4:54 am42 °FLight rain. Fog.6 mph100%29.59 "Hg5 mi
3:54 am43 °FLight rain. Fog.6 mph100%29.60 "Hg5 mi
2:54 am43 °FLight rain. Fog.6 mph100%29.60 "Hg5 mi
2:08 am42 °FLight rain. Fog.6 mph100%29.60 "Hg4 mi
1:54 am42 °FHeavy rain. Fog.8 mph100%29.61 "Hg2 mi
12:54 am42 °FLight rain. Fog.9 mph100%29.65 "Hg4 mi
11:54 pm
Thu, Jan 19
42 °FLight rain. Fog.9 mph100%29.68 "Hg5 mi
10:54 pm42 °FLight rain. Fog.9 mph100%29.72 "Hg4 mi
9:54 pm42 °FLight rain. Fog.12 mph96%29.75 "Hg3 mi
9:41 pm42 °FLight rain. Fog.10 mph96%29.75 "Hg3 mi
9:27 pm42 °FRain. Fog.12 mph96%29.75 "Hg3 mi
8:54 pm41 °FLight rain. Fog.15 mph100%29.78 "Hg4 mi
8:08 pm41 °FLight rain. Fog.12 mph100%29.79 "Hg4 mi
7:54 pm41 °FLight rain. Fog.14 mph100%29.81 "Hg4 mi
6:54 pm41 °FRain. Fog.10 mph96%29.85 "Hg3 mi
5:54 pm41 °FLight rain. Fog.7 mph96%29.88 "Hg4 mi
4:54 pm42 °FFog.13 mph92%29.85 "Hg4 mi
3:54 pm42 °FLight rain. Fog.8 mph89%29.87 "Hg4 mi
2:54 pm44 °FPartly sunny.8 mph82%29.89 "Hg7 mi
1:54 pm43 °FScattered clouds.10 mph82%29.93 "Hg7 mi
12:54 pm43 °FOvercast.7 mph82%29.98 "Hg7 mi
11:54 am41 °FFog.8 mph89%29.97 "Hg6 mi
Weather by CustomWeather, © 2017

See weather overviewHow to use our weather pages